2021-046D

Last updated on Thu Jun 03 2021 00:03:40 GMT+0000 (Coordinated Universal Time)

1 48806U 21046D 21152.92105533 .04713186 70024-5 28721-2 0 9998 2 48806 41.3237 15.7581 0155844 176.1447 185.3163 15.95832165 543

Satellite not in orbit